Ft. Stewart, GA

10:16 AM EDT on August 19, 2017 (GMT -0400)
Wright Army Air Field

Weather History for KLHW - June, 2013

Change the Weather History Date:

Monday, June 3, 2013

  Actual Average Record
Temperature  
Mean Temperature 81 °F -  
Max Temperature 90 °F 89 °F 103 °F (1985)
Min Temperature 72 °F 66 °F 55 °F (1966)
Cooling Degree Days 16    
Growing Degree Days 31 (Base 50)    
Moisture  
Dew Point 73 °F    
Average Humidity 88    
Maximum Humidity 100    
Minimum Humidity 53    
Precipitation  
Precipitation 0.00 in - - ()
Sea Level Pressure  
Sea Level Pressure 29.91 in    
Wind  
Wind Speed 3 mph (South)    
Max Wind Speed 12 mph    
Max Gust Speed -    
Visibility 9 miles    
Events      
Averages and records for this station are not official NWS values.
T = Trace of Precipitation, MM = Missing Value Source: NWS Daily Summary

Daily Weather History Graph

Daily Weather History Graph

Search for Another Location

Airport or City:

Trip Planner

Search our weather history database for the weather conditions in past years. The results will help you decide how hot, cold, wet, or windy it might be!

Date:

Astronomy

Jun. 03, 2013 Rise Set
Actual Time 6:20 AM EDT 8:28 PM EDT
Civil Twilight 5:52 AM EDT 8:56 PM EDT
Nautical Twilight 5:18 AM EDT 9:30 PM EDT
Astronomical Twilight 4:42 AM EDT 10:06 PM EDT
Moon 3:02 AM EDT (6/3) 4:10 PM EDT (6/3)
Length of Visible Light 15h 03m
Length of Day
14h 07m
Waning Crescent, 22% of the Moon is Illuminated
Jun 3
Waning Crescent
Jun 8
New
Jun 16
First Quarter
Jun 23
Full
Jun 30
Last Quarter

Hourly Weather History & Observations

Time (EDT) Temp. Heat Index Dew Point Humidity Pressure Visibility Wind Dir Wind Speed Gust Speed Precip Events Conditions
12:58 AM 74.5 °F - 74.5 °F 100% 29.95 in 10.0 mi ESE 2.3 mph - N/A   Clear
1:58 AM 73.6 °F - 73.6 °F 100% 29.95 in 10.0 mi SSW 1.2 mph - N/A   Scattered Clouds
2:58 AM 74.1 °F - 74.1 °F 100% 29.93 in 10.0 mi Calm Calm - N/A   Scattered Clouds
3:28 AM 73.4 °F - 73.4 °F 100% 29.91 in 10.0 mi Calm Calm - N/A   Mostly Cloudy
3:38 AM 73.4 °F - 73.4 °F 100% 29.91 in 10.0 mi North 1.2 mph - N/A   Overcast
3:43 AM 75.2 °F - 75.2 °F 100% 29.90 in 10.0 mi Calm Calm - N/A   Overcast
3:48 AM 75.2 °F - 75.2 °F 100% 29.90 in 10.0 mi Calm Calm - N/A   Overcast
3:53 AM 73.4 °F - 73.4 °F 100% 29.90 in 10.0 mi Calm Calm - N/A   Overcast
3:58 AM 73.9 °F - 73.9 °F 100% 29.91 in 10.0 mi Calm Calm - N/A   Overcast
4:08 AM 73.4 °F - 73.4 °F 100% 29.89 in 10.0 mi East 4.6 mph - N/A   Overcast
4:13 AM 73.4 °F - 73.4 °F 100% 29.89 in 10.0 mi SE 3.5 mph - N/A   Mostly Cloudy
4:28 AM 73.4 °F - 73.4 °F 100% 29.88 in 10.0 mi ESE 4.6 mph - N/A   Scattered Clouds
4:58 AM 72.7 °F - 72.7 °F 100% 29.88 in 10.0 mi ESE 6.9 mph - N/A   Clear
5:58 AM 73.0 °F - 73.0 °F 100% 29.88 in 10.0 mi SSE 3.5 mph - N/A   Overcast
6:18 AM 73.4 °F - 73.4 °F 100% 29.88 in 10.0 mi SSE 3.5 mph - N/A   Overcast
6:58 AM 73.0 °F - 73.0 °F 100% 29.89 in 10.0 mi SSE 4.6 mph - N/A   Overcast
7:18 AM 73.4 °F - 73.4 °F 100% 29.90 in 1.8 mi Variable 4.6 mph - N/A   Overcast
7:23 AM 73.4 °F - 73.4 °F 100% 29.90 in 1.0 mi South 5.8 mph - N/A   Mist
7:28 AM 73.4 °F - 73.4 °F 100% 29.90 in 1.2 mi SSW 3.5 mph - N/A   Overcast
7:38 AM 73.4 °F - 73.4 °F 100% 29.90 in 2.0 mi SSW 5.8 mph - N/A   Overcast
7:43 AM 73.4 °F - 73.4 °F 100% 29.90 in 4.0 mi SSW 2.3 mph - N/A   Overcast
7:58 AM 73.6 °F - 73.6 °F 100% 29.91 in 10.0 mi SSW 3.5 mph - N/A   Overcast
8:03 AM 73.4 °F - 73.4 °F 100% 29.91 in 10.0 mi SSW 5.8 mph - N/A   Overcast
8:23 AM 75.2 °F - 75.2 °F 100% 29.92 in 10.0 mi SSW 5.8 mph - N/A   Mostly Cloudy
8:48 AM 75.2 °F - 75.2 °F 100% 29.93 in 10.0 mi SW 4.6 mph - N/A   Scattered Clouds
8:58 AM 75.9 °F - 73.4 °F 92% 29.94 in 10.0 mi SSW 5.8 mph - N/A   Scattered Clouds
9:58 AM 79.7 °F - 71.4 °F 76% 29.95 in 10.0 mi Variable 4.6 mph - N/A   Clear
10:58 AM 82.4 °F 87.2 °F 71.6 °F 70% 29.95 in 10.0 mi Variable 4.6 mph - N/A   Scattered Clouds
11:58 AM 86.4 °F 91.8 °F 70.9 °F 60% 29.94 in 10.0 mi SSW 8.1 mph - N/A   Scattered Clouds
12:58 PM 86.9 °F 92.1 °F 70.7 °F 58% 29.93 in 10.0 mi West 11.5 mph - N/A   Mostly Cloudy
1:58 PM 87.4 °F 93.1 °F 71.2 °F 58% 29.92 in 10.0 mi WNW 8.1 mph - N/A   Mostly Cloudy
2:58 PM 88.5 °F 94.4 °F 71.2 °F 56% 29.90 in 10.0 mi West 11.5 mph - N/A   Mostly Cloudy
3:58 PM 90.3 °F 96.7 °F 71.1 °F 53% 29.87 in 10.0 mi WSW 6.9 mph - N/A   Partly Cloudy
4:58 PM 88.3 °F 94.1 °F 71.1 °F 56% 29.87 in 10.0 mi West 10.4 mph - N/A   Scattered Clouds
5:58 PM 90.1 °F 96.3 °F 71.1 °F 53% 29.86 in 10.0 mi NNW 6.9 mph - N/A   Clear
6:58 PM 88.9 °F 94.7 °F 70.7 °F 55% 29.87 in 10.0 mi ENE 2.3 mph - N/A   Scattered Clouds
7:58 PM 82.9 °F 89.9 °F 74.7 °F 76% 29.91 in 10.0 mi South 8.1 mph - N/A   Partly Cloudy
8:58 PM 79.5 °F - 73.6 °F 82% 29.92 in 10.0 mi SSE 4.6 mph - N/A   Clear
10:58 PM 75.7 °F - 72.5 °F 90% 29.95 in 10.0 mi SSE 3.5 mph - N/A   Clear
11:58 PM 74.3 °F - 71.6 °F 91% 29.96 in 10.0 mi Calm Calm - N/A   Scattered Clouds